Location: Shepherdstown, WV
(39.4326°N, 77.8042°W)
Time: 02:15:35
(UTC-04:00)

Courier 1B Rocket - All Passes

Search period start: 31 July 2021 00:00
Search period end: 10 August 2021 00:00
Orbit: 920 x 1202 km, 28.2° (Epoch: 30 July)

Date Brightness Start Highest point End Pass type
(mag) Time Alt. Az. Time Alt. Az. Time Alt. Az.
31 Jul - 01:45:23 10° S 01:48:49 14° SSE 01:52:09 10° SE visible
31 Jul - 03:36:03 10° SW 03:41:24 26° S 03:46:33 10° ESE visible
31 Jul - 05:28:40 10° WSW 05:34:05 29° S 05:39:22 10° SE visible
31 Jul - 07:22:21 10° WSW 07:26:37 19° SSW 07:30:54 10° SSE daylight
01 Aug - 00:46:46 10° SSE 00:48:01 10° SSE 00:49:15 10° SE night (unlit)
01 Aug - 02:35:25 10° SW 02:40:35 23° SSE 02:45:33 10° ESE visible
01 Aug - 04:27:41 10° WSW 04:33:16 30° S 04:38:40 10° ESE visible
01 Aug - 06:21:01 10° WSW 06:25:54 23° SSW 06:30:41 10° SE daylight
01 Aug - 08:17:31 10° SSW 08:18:17 10° SSW 08:19:04 10° SSW daylight
02 Aug - 01:34:58 10° SSW 01:39:45 20° SSE 01:44:20 10° ESE visible
02 Aug - 03:26:45 10° SW 03:32:27 30° S 03:37:53 10° ESE visible
02 Aug - 05:19:49 10° WSW 05:25:08 27° S 05:30:17 10° SE visible
02 Aug - 07:14:19 10° SW 07:17:36 15° SSW 07:20:53 10° S daylight
03 Aug - 00:34:54 10° SSW 00:38:55 16° SSE 00:42:48 10° ESE night (unlit)
03 Aug - 02:25:53 10° SW 02:31:36 28° S 02:37:01 10° ESE visible
03 Aug - 04:18:40 10° WSW 04:24:21 30° S 04:29:45 10° SE visible
03 Aug - 06:12:33 10° WSW 06:16:54 19° SSW 06:21:11 10° SSE daylight
03 Aug - 23:35:38 10° S 23:38:04 12° SSE 23:40:27 10° SE night (unlit)
04 Aug - 01:25:08 10° SW 01:30:44 25° SSE 01:36:02 10° ESE night (unlit)
04 Aug - 03:17:35 10° WSW 03:23:31 31° S 03:29:06 10° ESE visible
04 Aug - 05:11:05 10° WSW 05:16:10 24° SSW 05:21:04 10° SE visible
04 Aug - 07:08:05 10° SSW 07:08:32 10° SSW 07:08:58 10° SSW daylight
05 Aug - 00:24:36 10° SSW 00:29:50 21° SSE 00:34:51 10° ESE night (unlit)
05 Aug - 02:16:33 10° SW 02:22:37 31° S 02:28:20 10° ESE visible
05 Aug - 04:09:46 10° WSW 04:15:23 28° S 04:20:43 10° SE visible
05 Aug - 06:04:26 10° SW 06:07:51 15° SSW 06:11:12 10° S daylight
05 Aug - 23:24:23 10° SSW 23:28:56 17° SSE 23:33:20 10° ESE night (unlit)
06 Aug - 01:15:36 10° SW 01:21:42 29° S 01:27:28 10° ESE night (unlit)
06 Aug - 03:08:32 10° WSW 03:14:32 31° S 03:20:12 10° SE visible
06 Aug - 05:02:32 10° WSW 05:07:08 20° SSW 05:11:34 10° SSE visible
06 Aug - 22:24:52 10° S 22:28:02 13° SSE 22:31:09 10° SE visible
07 Aug - 00:14:47 10° SW 00:20:46 26° SSE 00:26:27 10° ESE night (unlit)
07 Aug - 02:07:21 10° WSW 02:13:38 33° S 02:19:32 10° ESE visible
07 Aug - 04:00:58 10° WSW 04:06:22 25° SSW 04:11:29 10° SE visible
07 Aug - 05:57:44 10° SW 05:58:44 10° SSW 05:59:44 10° SSW daylight
07 Aug - 23:14:11 10° SSW 23:19:49 23° SSE 23:25:14 10° ESE visible
08 Aug - 01:06:15 10° SW 01:12:41 33° S 01:18:45 10° ESE night (unlit)
08 Aug - 02:59:34 10° WSW 03:05:32 29° S 03:11:09 10° SE visible
08 Aug - 04:54:20 10° WSW 04:58:03 15° SSW 05:01:39 10° S visible
08 Aug - 22:13:55 10° SSW 22:18:52 18° SSE 22:23:41 10° ESE visible
09 Aug - 00:05:15 10° SW 00:11:42 31° S 00:17:50 10° ESE visible
09 Aug - 01:58:16 10° WSW 02:04:37 32° S 02:10:37 10° SE night (unlit)
09 Aug - 03:52:22 10° WSW 03:57:18 21° SSW 04:02:01 10° SSE visible
09 Aug - 21:14:17 10° S 21:17:57 14° SSE 21:21:32 10° SE visible
09 Aug - 23:04:24 10° SW 23:10:42 28° SSE 23:16:45 10° ESE visible
